COSMOS 2251 DEB, 35884

Orbit data source: Space-Track

COSMOS 2251 DEB, 35884 is space debris in LEO originally from a launch on Wed, 16 Jun 1993 UTC launched from the Plesetsk Missile And Space Complex (PKMTR). The debris from Iridium 33, an American commercial communications satellite, has been tracked extensively since its accidental collision with the defunct Russian satellite Cosmos 2251 in 2009. This event, occurring at high speed in low Earth orbit (LEO), generated thousands of pieces of space debris, significantly increasing the risk of further collisions. The Iridium 33 debris cloud has impacted space traffic management and orbital debris mitigation strategies, making it a subject of ongoing study in space situational awareness.

Loading next visibility...
Identifier
35884, 1993-036ATX
Orbit
LEO
Country
Flag of CISCIS
Related business
Manufacturer
Unknown
Mission
Spacecraft
Bus & Motor
Unknown
Mass
Unknown
Launch date (UTC)
1993-06-16 (33 years ago)
Launch vehicle
Unknown
Launch site
Plesetsk Missile And Space Complex (PKMTR)
Object type
Payload
Rocket body
Debris
Shape & HBR
Unknown shape, 0.1 m
Radar Cross Section
Small (<0.1 m²)

Expand to show TLE details & history
Last TLE update: 1 week ago

TLE from 1 week ago
0 COSMOS 2251 DEB
1 35884U 93036ATX 26200.60397272  .00001221  00000-0  47791-3 0  9992
2 35884  73.9902 299.1674 0112665  34.2874 326.5479 14.27110657254783
Epoch: 2026-07-19T14:29Z
TLE epoch observation values (Epoch: 2026-07-19T14:29:43.243Z)
Latitude
-0.00002°
Longitude
144.33722°
Altitude
736.783 km
Speed
7.522 km/s
True Right ascension
19h 56m 40s
True Declination
0° 00' 00"
Sunlit
Object was in full shadow at epoch
Visualization orbit readout
Latitude
Unknown
Longitude
Unknown
Altitude
Unknown
Speed
Unknown
Apparent Right ascension
Unknown
Apparent Declination
Unknown
Sunlit
N/A
Visualization observer readout
Local Sidereal Time
08:43:15
Azimuth
Unknown
Elevation
Unknown
Doppler factor
Unknown
Orbital elements
Apogee altitude
879.904 km
Perigee altitude
718.181 km
Semi-major axis
7,177.179 km
Eccentricity
0.01127
Inclination
73.9902°
RAAN
299.1674°
Arg. of periapsis
34.2874°
True anomaly
325.82779°
Mean anomaly
326.5479°
Eccentric anomaly
326.18869°
Mean motion
3.56954 °/min
Orbital period
100.85 mins
BSTAR
0.00047791
Loading maneuver chart data...
Computing Atmospheric mass density...

Documentation

Showing up to 5 results
|